Regional Weather Roundup
Issued by NWS

Home | Current Version | Previous Version | Graphics & Text | Print | Product List | Glossary On
Versions: 1 2 3 4 5 6 7 8 9 10 11 12 13 14 15 16 17 18 19 20 21 22 23 24 25 26 27 28 29 30 31 32 33 34 35 36 37 38 39 40 41 42 43 44 45 46 47 48 49 50
300
ASUS43 KBIS 051110
RWRND

NORTH DAKOTA REGIONAL WEATHER ROUNDUP
NATIONAL WEATHER SERVICE BISMARCK ND
500 AM CST MON DEC 05 2016

NOTE: "FAIR" INDICATES FEW OR NO CLOUDS BELOW 12,000 FEET WITH NO
SIGNIFICANT WEATHER AND/OR OBSTRUCTIONS TO VISIBILITY.


NDZ001>003-009>011-017-051200-
NORTHWEST NORTH DAKOTA

CITY           SKY/WX    TMP DP  RH WIND       PRES   REMARKS
WILLISTON      CLOUDY    28  25  88 W15       29.49R WCI  16
MINOT          CLOUDY    19  17  92 CALM      29.52F
MINOT AFB      CLOUDY    18  16  91 SE7       29.52F WCI   9
$$

NDZ018>021-031>035-040>046-051200-
SOUTHWEST NORTH DAKOTA

CITY           SKY/WX    TMP DP  RH WIND       PRES   REMARKS
BISMARCK       MOCLDY    17  15  92 E10       29.54F WCI   5
DICKINSON      CLOUDY    31  27  85 W20       29.50R WCI  19
GARRISON         N/A     27  24  89 S9        29.51R WCI  18
HETTINGER ARPT FLURRIES  25  20  81 NW9       29.52S WCI  15
$$

NDZ004>008-012>016-024-026-027-054-051200-
NORTHEAST NORTH DAKOTA

CITY           SKY/WX    TMP DP  RH WIND       PRES   REMARKS
GRAND FORKS    CLOUDY    26  23  88 E5        29.69F
GRND FRKS AFB  CLOUDY    26  24  94 S5        29.69S WCI  20
DEVILS LAKE      N/A     23  22  96 E9        29.61F FOG     WCI  13
$$

NDZ022-023-025-028>030-036>039-047>053-051200-
SOUTHEAST NORTH DAKOTA

CITY           SKY/WX    TMP DP  RH WIND       PRES   REMARKS
FARGO          MOCLDY    21  17  84 SE5       29.69F WCI  15
JAMESTOWN      CLEAR     23  21  92 E3        29.60F
$$





USA.gov is the U.S. government's official web portal to all federal, state and local government web resources and services.